Location: Unspecified
(0.0000°N, 0.0000°E)
Time: 06:24:29
(UTC+00:00)

Delta IV Demo - Pass Details

Date: 27 October 2019
Orbit: 17875 x 36457 km, 16.5° (Epoch: 12 November)

Event Time Altitude Azimuth Distance (km) Brightness Sun altitude
Rises 15:32:58 0° 270° (W) 25,381 12.7 31.8°
Reaches altitude 10° 16:06:52 10° 264° (W) 22,995 13.4 23.6°
Maximum altitude 22:33:02 77° 73° (ENE) 33,548 11.6 -68.2°
Enters shadow 22:52:19 77° 65° (ENE) 34,199 11.7 -71.8°
Exits shadow 23:37:33 77° 49° (NE) 35,430 11.8 -77.0°
Drops below altitude 10° 10:10:23 10° 106° (ESE) 22,448 12.0 63.4°
Sets 10:36:28 0° 107° (ESE) 24,109 11.9 68.8°
